When you browse on this site, cookies collect data to enhance your experience and personalize the content and advertising you see.
Visit our Privacy Policy to learn more. By continuing to use the site, you agree to this use of cookies and data.
  • In Romania
  • List of Countries
  • For 7 days
  • Water Temperature
  • Weather Map
  • Weather Widgets
  • user-avatar
    Login

    Hourly Weather Waterloo

    Today, 31 March, Tuesday

    Time Temperature Precipitation Wind Pressure Humidity
    00:00 +26°C° 0 mm 0 mps 750 mmHg 73%
    01:00 +26°C° 0 mm 0 mps 749 mmHg 75%
    02:00 +25°C° 0 mm 0 mps 749 mmHg 77%
    03:00 +25°C° 0 mm 0 mps 749 mmHg 78%
    04:00 +25°C° 0 mm 0 mps 749 mmHg 79%
    05:00 +25°C° 0 mm 0 mps 749 mmHg 80%
    06:00 +26°C° 0 mm 0 mps 750 mmHg 74%
    07:00 +29°C° 0 mm 1 mps 751 mmHg 68%
    08:00 +30°C° 0 mm 1 mps 751 mmHg 62%
    09:00 +33°C° 0 mm 1 mps 751 mmHg 54%
    10:00 +36°C° 0 mm 1 mps 751 mmHg 45%
    11:00 +40°C° 0 mm 1 mps 751 mmHg 37%
    12:00 +41°C° 0 mm 1 mps 750 mmHg 34%
    13:00 +42°C° 0 mm 1 mps 749 mmHg 30%
    14:00 +41°C° 0 mm 0 mps 748 mmHg 27%
    15:00 +42°C° 0 mm 1 mps 748 mmHg 28%
    16:00 +41°C° 0 mm 1 mps 748 mmHg 30%
    17:00 +40°C° 0 mm 1 mps 748 mmHg 32%
    18:00 +37°C° 0 mm 2 mps 748 mmHg 42%
    19:00 +34°C° 0 mm 2 mps 749 mmHg 52%
    20:00 +30°C° 0 mm 3 mps 749 mmHg 62%
    21:00 +30°C° 0 mm 2 mps 750 mmHg 65%
    22:00 +29°C° 0 mm 2 mps 750 mmHg 69%
    23:00 +29°C° 0 mm 1 mps 750 mmHg 73%

    Tomorrow, 1 April, Wednesday

    Time Temperature Precipitation Wind Pressure Humidity
    00:00 +28°C° 0 mm 1 mps 750 mmHg 75%
    01:00 +28°C° 0 mm 1 mps 750 mmHg 78%
    02:00 +26°C° 0 mm 0 mps 750 mmHg 81%
    03:00 +25°C° 0 mm 0 mps 750 mmHg 82%
    04:00 +25°C° 0 mm 0 mps 751 mmHg 84%
    05:00 +25°C° 0 mm 0 mps 751 mmHg 85%
    06:00 +27°C° 0 mm 0 mps 751 mmHg 77%
    07:00 +28°C° 0 mm 0 mps 752 mmHg 70%
    08:00 +32°C° 0 mm 1 mps 752 mmHg 62%
    09:00 +34°C° 0 mm 1 mps 752 mmHg 56%
    10:00 +36°C° 0 mm 1 mps 752 mmHg 49%
    11:00 +39°C° 0 mm 1 mps 751 mmHg 43%
    12:00 +40°C° 0 mm 1 mps 751 mmHg 41%
    13:00 +40°C° 0 mm 1 mps 750 mmHg 40%
    14:00 +41°C° 0 mm 1 mps 749 mmHg 38%
    15:00 +39°C° 0 mm 2 mps 749 mmHg 41%
    16:00 +38°C° 0 mm 3 mps 749 mmHg 44%
    17:00 +37°C° 0 mm 3 mps 748 mmHg 48%
    18:00 +35°C° 0.2 mm 3 mps 749 mmHg 56%
    19:00 +32°C° 0.2 mm 2 mps 750 mmHg 65%
    20:00 +30°C° 0.2 mm 2 mps 751 mmHg 73%
    21:00 +29°C° 0.3 mm 2 mps 751 mmHg 76%
    22:00 +29°C° 0.3 mm 1 mps 751 mmHg 79%
    23:00 +28°C° 0.3 mm 1 mps 752 mmHg 83%

    Day after tomorrow, 2 April, Thursday

    Time Temperature Precipitation Wind Pressure Humidity
    00:00 +28°C° 0 mm 1 mps 751 mmHg 85%
    01:00 +26°C° 0 mm 0 mps 751 mmHg 86%
    02:00 +26°C° 0 mm 0 mps 750 mmHg 88%
    03:00 +25°C° 0 mm 0 mps 751 mmHg 89%
    04:00 +25°C° 0 mm 0 mps 751 mmHg 90%
    05:00 +25°C° 0 mm 0 mps 751 mmHg 91%
    06:00 +27°C° 0 mm 0 mps 751 mmHg 84%
    07:00 +28°C° 0 mm 0 mps 752 mmHg 77%
    08:00 +31°C° 0 mm 1 mps 753 mmHg 70%
    09:00 +33°C° 0 mm 1 mps 752 mmHg 64%
    10:00 +34°C° 0 mm 1 mps 752 mmHg 58%
    11:00 +36°C° 0 mm 1 mps 752 mmHg 51%
    12:00 +36°C° 0 mm 1 mps 751 mmHg 51%
    13:00 +36°C° 0 mm 1 mps 750 mmHg 50%
    14:00 +36°C° 0 mm 1 mps 750 mmHg 49%
    15:00 +37°C° 0 mm 2 mps 749 mmHg 51%
    16:00 +36°C° 0 mm 2 mps 749 mmHg 53%
    17:00 +36°C° 0 mm 2 mps 749 mmHg 55%
    18:00 +34°C° 0 mm 2 mps 750 mmHg 62%
    19:00 +31°C° 0 mm 2 mps 750 mmHg 69%
    20:00 +30°C° 0 mm 2 mps 751 mmHg 75%
    21:00 +29°C° 0 mm 1 mps 751 mmHg 78%
    22:00 +29°C° 0 mm 1 mps 751 mmHg 82%
    23:00 +28°C° 0 mm 1 mps 751 mmHg 85%

    3 April, Friday

    Time Temperature Precipitation Wind Pressure Humidity
    00:00 +26°C° 0 mm 0 mps 751 mmHg 86%
    01:00 +26°C° 0 mm 0 mps 750 mmHg 88%
    02:00 +26°C° 0 mm 0 mps 749 mmHg 90%
    03:00 +25°C° 0 mm 0 mps 750 mmHg 91%
    04:00 +25°C° 0 mm 0 mps 750 mmHg 92%
    05:00 +25°C° 0 mm 0 mps 750 mmHg 93%
    06:00 +27°C° 0 mm 0 mps 750 mmHg 84%
    07:00 +28°C° 0 mm 0 mps 751 mmHg 76%
    08:00 +32°C° 0 mm 1 mps 751 mmHg 67%
    09:00 +34°C° 0 mm 1 mps 751 mmHg 60%
    10:00 +36°C° 0 mm 1 mps 751 mmHg 52%
    11:00 +39°C° 0 mm 1 mps 751 mmHg 44%
    12:00 +38°C° 0.1 mm 2 mps 750 mmHg 48%
    13:00 +37°C° 0.1 mm 2 mps 749 mmHg 51%
    14:00 +36°C° 0.1 mm 3 mps 748 mmHg 54%
    15:00 +36°C° 0.5 mm 3 mps 748 mmHg 56%
    16:00 +35°C° 0.5 mm 3 mps 748 mmHg 58%
    17:00 +35°C° 0.5 mm 3 mps 748 mmHg 60%
    18:00 +32°C° 0.1 mm 2 mps 749 mmHg 66%
    19:00 +31°C° 0.1 mm 2 mps 749 mmHg 71%
    20:00 +29°C° 0.1 mm 2 mps 750 mmHg 77%
    21:00 +29°C° 0 mm 2 mps 750 mmHg 79%
    22:00 +29°C° 0 mm 1 mps 750 mmHg 82%
    23:00 +28°C° 0 mm 1 mps 750 mmHg 84%

    4 April, Saturday

    Time Temperature Precipitation Wind Pressure Humidity
    00:00 +26°C° 0 mm 0 mps 750 mmHg 86%
    01:00 +26°C° 0 mm 0 mps 750 mmHg 87%
    02:00 +26°C° 0 mm 0 mps 750 mmHg 89%
    03:00 +25°C° 0 mm 0 mps 750 mmHg 89%
    04:00 +25°C° 0 mm 0 mps 750 mmHg 90%
    05:00 +25°C° 0 mm 0 mps 750 mmHg 91%
    06:00 +27°C° 0 mm 0 mps 750 mmHg 83%
    07:00 +28°C° 0 mm 0 mps 751 mmHg 75%
    08:00 +32°C° 0 mm 1 mps 751 mmHg 67%
    09:00 +34°C° 0 mm 1 mps 751 mmHg 60%
    10:00 +36°C° 0 mm 1 mps 751 mmHg 53%
    11:00 +37°C° 0 mm 1 mps 751 mmHg 46%
    12:00 +37°C° 0.3 mm 1 mps 750 mmHg 49%
    13:00 +36°C° 0.3 mm 1 mps 749 mmHg 51%
    14:00 +35°C° 0.3 mm 1 mps 749 mmHg 54%
    15:00 +36°C° 0.7 mm 2 mps 749 mmHg 56%
    16:00 +35°C° 0.7 mm 2 mps 749 mmHg 59%
    17:00 +35°C° 0.7 mm 2 mps 748 mmHg 62%
    18:00 +32°C° 0 mm 2 mps 749 mmHg 67%
    19:00 +31°C° 0 mm 2 mps 750 mmHg 73%
    20:00 +30°C° 0 mm 2 mps 750 mmHg 78%
    21:00 +29°C° 0 mm 1 mps 751 mmHg 81%
    22:00 +29°C° 0 mm 1 mps 751 mmHg 83%
    23:00 +26°C° 0 mm 0 mps 751 mmHg 86%

    5 April, Sunday

    Time Temperature Precipitation Wind Pressure Humidity
    00:00 +26°C° 0 mm 0 mps 751 mmHg 87%
    01:00 +26°C° 0 mm 0 mps 750 mmHg 88%
    02:00 +26°C° 0 mm 0 mps 750 mmHg 90%
    03:00 +26°C° 0 mm 0 mps 750 mmHg 90%
    04:00 +25°C° 0 mm 0 mps 750 mmHg 91%
    05:00 +25°C° 0 mm 0 mps 750 mmHg 92%
    06:00 +27°C° 0 mm 0 mps 751 mmHg 84%
    07:00 +30°C° 0 mm 1 mps 751 mmHg 75%
    08:00 +32°C° 0 mm 1 mps 752 mmHg 67%
    09:00 +34°C° 0 mm 1 mps 752 mmHg 60%
    10:00 +36°C° 0 mm 1 mps 751 mmHg 53%
    11:00 +36°C° 0 mm 0 mps 751 mmHg 46%
    12:00 +39°C° 0.1 mm 1 mps 750 mmHg 44%
    13:00 +40°C° 0.1 mm 1 mps 750 mmHg 42%
    14:00 +40°C° 0.1 mm 1 mps 749 mmHg 41%
    15:00 +39°C° 0.1 mm 2 mps 749 mmHg 45%
    16:00 +37°C° 0.1 mm 2 mps 749 mmHg 50%
    17:00 +36°C° 0.1 mm 3 mps 748 mmHg 55%
    18:00 +34°C° 0.2 mm 3 mps 749 mmHg 63%
    19:00 +31°C° 0.2 mm 3 mps 750 mmHg 72%
    20:00 +29°C° 0.2 mm 2 mps 750 mmHg 80%
    21:00 +29°C° 0 mm 2 mps 751 mmHg 82%
    22:00 +29°C° 0 mm 1 mps 751 mmHg 84%
    23:00 +26°C° 0 mm 0 mps 751 mmHg 86%
    Show more